Location: downtown San Diego
(32.7310°N, 117.1990°W)
Time: 23:50:35
(UTC-07:00)

Meteor 1-5 Rocket - Pass Details

Date: 19 May 2017
Orbit: 788 x 916 km, 81.2° (Epoch: 24 July)

Event Time Altitude Azimuth Distance (km) Brightness Sun altitude
Rises 20:27:28 0° 352° (N) 3,546 8.1 -9.0°
Reaches altitude 10° 20:29:56 10° 352° (N) 2,607 7.3 -9.4°
Maximum altitude 20:35:56 89° 83° (E) 920 4.4 -10.5°
Drops below altitude 10° 20:41:53 10° 173° (S) 2,585 6.4 -11.5°
Enters shadow 20:44:13 - 173° (S) 3,475 7.0 -11.9°
